Flag for Germany Weather past 2 weeks in Gladbeck, North Rhine-Westphalia, Germany

Now
65 °F

Light rain. Overcast.


Feels Like: 65 °F
Forecast: 51 / 62 °F
Wind: 6 mph from West

Location: Duesseldorf

Current Time: Aug 22, 2014 at 6:00:50 PM

Latest Report: Aug 22, 2014 at 5:00 PM


Visibility: 19 mi

Pressure: 29.85 "Hg

Humidity: 51%

Dew point: 46 °F

Location of GladbeckLocation

Historic Weather in Gladbeck — Graph

°F

Gladbeck temperature yesterday

Maximum temperature yesterday: 64 °F (at 2:00 PM)
Minimum temperature yesterday: 45 °F (at 6:00 AM)
Average temperature yesterday: 55 °F

Past Weeks' High & Low Weather Summary

 TemperatureHumidityPressure
High77 °F (Aug 8, 1:00 PM)96% (Aug 21, 3:00 AM)30.10 "Hg (Aug 21, 3:00 AM)
Low45 °F (Aug 21, 6:00 AM)44% (Aug 20, 4:00 PM)29.57 "Hg (Aug 10, 7:00 PM)
Average61 °F75%29.87 "Hg
* Reported Aug 7 5:00 PM — Aug 22 5:00 PM, Gladbeck, Weather by CustomWeather, © 2014

Note: Actual official high and low records may vary slightly from our data, if they occured in-between our weather recording intervals... More about our weather records

Advertising

Gladbeck weather history for previous 24 hours

 ConditionsComfort  
Time TempWeatherWind HumidityBarometerVisibility
5:00 PM
Aug 22
65 °FLight rain. Overcast.6 mph51%29.85 "Hg19 mi
4:00 PM65 °FOvercast.5 mph52%29.85 "Hg25 mi
3:00 PM64 °FOvercast.7 mph56%29.87 "Hg25 mi
2:00 PM65 °FOvercast.10 mph55%29.87 "Hg25 mi
1:00 PM64 °FOvercast.9 mph54%29.88 "Hg28 mi
12:00 PM65 °FOvercast.8 mph54%29.88 "Hg31 mi
11:00 AM61 °FOvercast.7 mph60%29.89 "Hg31 mi
10:00 AM59 °FOvercast.5 mph67%29.90 "Hg31 mi
9:00 AM56 °FOvercast.5 mph76%29.90 "Hg31 mi
8:00 AM54 °FOvercast.6 mph81%29.90 "Hg25 mi
7:00 AM53 °FPartly sunny.6 mph85%29.91 "Hg25 mi
6:00 AM52 °FPassing clouds.3 mph83%29.92 "Hg28 mi
4:00 AM53 °FOvercast.3 mph82%29.94 "Hg28 mi
3:00 AM52 °FPassing clouds.3 mph83%29.96 "Hg28 mi
2:00 AM54 °FOvercast.5 mph81%29.96 "Hg28 mi
1:00 AM56 °FPassing clouds.3 mph75%29.96 "Hg28 mi
12:00 AM58 °FPassing clouds.5 mph70%29.97 "Hg28 mi
11:00 PM
Aug 21
58 °FOvercast.3 mph69%29.98 "Hg28 mi
10:00 PM58 °FOvercast.3 mph70%29.97 "Hg25 mi
9:00 PM59 °FOvercast.6 mph74%29.96 "Hg12 mi
8:00 PM61 °FOvercast.3 mph60%29.96 "Hg28 mi
7:00 PM63 °FPartly sunny.3 mph51%29.97 "Hg28 mi
6:00 PM62 °FPartly sunny.3 mph54%29.98 "Hg25 mi
Weather by CustomWeather, © 2014

See weather overviewHow to use our weather pages